Location: Domont
(49.0278°N, 2.3264°E)
Time: 08:08:42
(UTC+00:00)

ATLAS 5 CENTAUR R/B - Pass Details

Date: 16 October 2021
Orbit: 497 x 1159 km, 63.4° (Epoch: 25 November)

Event Time Altitude Azimuth Distance (km) Brightness Sun altitude
Rises 18:39:55 0° 203° (SSW) 2,588 5.0 -17.3°
Reaches altitude 10° 18:42:02 10° 197° (SSW) 1,737 4.0 -17.7°
Maximum altitude 18:45:42 45° 123° (ESE) 750 1.6 -18.3°
Enters shadow 18:46:05 44° 105° (ESE) 774 1.6 -18.4°
